Eldoret, Kenya

10:16 PM EAT on September 19, 2017 (GMT +0300)
Eldoret

Weather History for HKEL - January, 2013

Change the Weather History Date:

Wednesday, January 23, 2013

  Actual Average Record
Temperature  
Mean Temperature 63 °F -  
Max Temperature 78 °F - - ()
Min Temperature 48 °F - - ()
Degree Days  
Heating Degree Days 2    
Growing Degree Days 13 (Base 50)    
Moisture  
Dew Point 45 °F    
Average Humidity 54    
Maximum Humidity 87    
Minimum Humidity 26    
Precipitation  
Precipitation 0.00 in - - ()
Sea Level Pressure  
Sea Level Pressure 30.25 in    
Wind  
Wind Speed 11 mph ()    
Max Wind Speed 22 mph    
Max Gust Speed -    
Visibility 6.2 miles    
Events      
T = Trace of Precipitation, MM = Missing Value Source: Averaged Metar Reports

Daily Weather History Graph

Daily Weather History Graph

Search for Another Location

Airport or City:

Trip Planner

Search our weather history database for the weather conditions in past years. The results will help you decide how hot, cold, wet, or windy it might be!

Date:

Astronomy

Jan. 23, 2013 Rise Set
Actual Time 6:47 AM EAT 6:53 PM EAT
Civil Twilight 6:25 AM EAT 7:15 PM EAT
Nautical Twilight 6:00 AM EAT 7:40 PM EAT
Astronomical Twilight 5:34 AM EAT 8:06 PM EAT
Moon 3:56 PM EAT (1/23) 3:33 AM EAT (1/23)
Length of Visible Light 12h 49m
Length of Day
12h 05m
Waxing Gibbous, 87% of the Moon is Illuminated
Jan 23
Waxing Gibbous
Jan 27
Full
Feb 3
Last Quarter
Feb 10
New
Feb 17
First Quarter

Hourly Weather History & Observations

Time (EAT) Temp. Dew Point Humidity Pressure Visibility Wind Dir Wind Speed Gust Speed Precip Events Conditions
12:00 AM 55.4 °F 42.8 °F 63% 30.27 in - East 15.0 mph - N/A   Clear
1:00 AM 55.4 °F 42.8 °F 63% 30.27 in - East 11.5 mph - N/A   Clear
3:00 AM 50.0 °F 44.6 °F 82% 30.24 in - ENE 11.5 mph - N/A   Clear
5:00 AM 48.2 °F 44.6 °F 87% 30.21 in - East 11.5 mph - N/A   Clear
6:00 AM 48.2 °F 44.6 °F 87% 30.27 in - ENE 6.9 mph - N/A   Clear
7:00 AM 48.2 °F 44.6 °F 87% 30.27 in - ENE 6.9 mph - N/A   Clear
8:00 AM 57.2 °F 48.2 °F 72% 30.30 in - ENE 8.1 mph - N/A   Clear
9:00 AM 66.2 °F 48.2 °F 52% 30.33 in - NE 12.7 mph - N/A   Clear
10:00 AM 71.6 °F 46.4 °F 41% 30.33 in - NE 15.0 mph - N/A   Clear
11:00 AM 71.6 °F 42.8 °F 35% - - NE 19.6 mph - N/A   Clear
12:00 PM 77.0 °F 41.0 °F 28% 30.27 in 6.2 mi ENE 18.4 mph - N/A   Mostly Cloudy
1:00 PM 73.4 °F 41.0 °F 31% - 6.2 mi ENE 21.9 mph - N/A   Mostly Cloudy
2:00 PM 78.8 °F 41.0 °F 26% 30.24 in 6.2 mi ENE 17.3 mph - N/A   Mostly Cloudy
3:00 PM 78.8 °F 46.4 °F 32% 30.21 in 6.2 mi East 11.5 mph - N/A   Mostly Cloudy
4:00 PM 78.8 °F 46.4 °F 32% 30.21 in 6.2 mi ENE 10.4 mph - N/A   Mostly Cloudy
5:00 PM 77.0 °F 46.4 °F 34% 30.21 in 6.2 mi NE 12.7 mph - N/A   Mostly Cloudy
6:00 PM 75.2 °F 46.4 °F 36% 30.21 in 6.2 mi ENE 12.7 mph - N/A   Mostly Cloudy
7:00 PM 66.2 °F 50.0 °F 56% 30.24 in 6.2 mi East 9.2 mph - N/A   Mostly Cloudy
8:00 PM 62.6 °F 50.0 °F 63% 30.24 in - East 6.9 mph - N/A   Clear
9:00 PM 60.8 °F 46.4 °F 59% 30.24 in - East 11.5 mph - N/A   Clear
10:00 PM 60.8 °F 46.4 °F 59% 30.24 in - East 12.7 mph - N/A   Clear
11:00 PM 59.0 °F 46.4 °F 63% 30.24 in - East 13.8 mph - N/A   Clear